CW9546 Weather Reports


Display with metric or nautical units.
time (UTC)temp
F
wind
direction
speed
MPH
gust
MPH
rain 1hr
in
rain 24hr
in
rain mn
in
humidity
%
barometer
mb
20260505011032 78 134 2.0 0.0 0.00 0.00 0.00 40 1009.2
20260505010059 78 236 1.0 0.0 0.00 0.00 0.00 40 1009.1
20260505005053 78 263 2.0 0.0 0.00 0.00 0.00 40 1009.1
20260505004043 79 271 1.0 0.0 0.00 0.00 0.00 39 1009.1
20260505003103 80 340 2.0 0.0 0.00 0.00 0.00 38 1009.1
20260505002048 80 349 2.0 0.0 0.00 0.00 0.00 38 1009.2
20260505001050 80 293 2.0 0.0 0.00 0.00 0.00 37 1009.2
20260505000040 80 265 2.0 0.0 0.00 0.00 0.00 37 1009.3
20260504235048 80 204 2.0 0.0 0.00 0.00 0.00 37 1009.5
20260504234043 80 296 2.0 0.0 0.00 0.00 0.00 38 1009.5
20260504233043 81 239 2.0 0.0 0.00 0.00 0.00 36 1009.5
20260504232045 81 17 2.0 0.0 0.00 0.00 0.00 37 1009.5
20260504231035 81 250 2.0 0.0 0.00 0.00 0.00 38 1009.5
20260504230054 80 357 2.0 0.0 0.00 0.00 0.00 37 1009.6
20260504225043 81 352 3.0 0.0 0.00 0.00 0.00 38 1009.6
20260504224042 81 342 3.0 0.0 0.00 0.00 0.00 37 1009.6
20260504223103 81 234 3.0 0.0 0.00 0.00 0.00 36 1010.0
20260504222053 81 229 3.0 0.0 0.00 0.00 0.00 36 1010.1
20260504221043 82 323 2.0 0.0 0.00 0.00 0.00 35 1010.1
20260504220054 81 76 3.0 0.0 0.00 0.00 0.00 37 1010.2
20260504215041 81 294 2.0 0.0 0.00 0.00 0.00 39 1010.1
20260504214028 82 303 2.0 0.0 0.00 0.00 0.00 35 1010.1
20260504213036 81 255 3.0 0.0 0.00 0.00 0.00 38 1010.2
20260504212043 80 120 2.0 0.0 0.00 0.00 0.00 37 1010.0
20260504211033 81 323 2.0 0.0 0.00 0.00 0.00 40 1010.1
20260504205120 80 226 2.0 0.0 0.00 0.00 0.00 40 1010.3
20260504204033 78 131 3.0 0.0 0.00 0.00 0.00 42 1010.3
20260504203043 80 262 2.0 0.0 0.00 0.00 0.00 39 1010.2
20260504202058 80 109 2.0 0.0 0.00 0.00 0.00 39 1010.4
20260504201030 78 122 2.0 0.0 0.00 0.00 0.00 39 1010.4
20260504200042 78 147 2.0 0.0 0.00 0.00 0.00 40 1010.4
20260504195053 79 256 2.0 0.0 0.00 0.00 0.00 40 1010.4
20260504194046 80 248 2.0 0.0 0.00 0.00 0.00 41 1010.4
20260504193033 79 259 3.0 0.0 0.00 0.00 0.00 39 1010.6
20260504192033 77 144 2.0 0.0 0.00 0.00 0.00 41 1010.5
20260504191036 79 119 2.0 0.0 0.00 0.00 0.00 43 1010.5
20260504190039 77 284 2.0 0.0 0.00 0.00 0.00 45 1010.7
20260504185101 76 135 2.0 0.0 0.00 0.00 0.00 43 1010.6
20260504184049 77 293 2.0 0.0 0.00 0.00 0.00 43 1010.7
20260504183050 76 149 2.0 0.0 0.00 0.00 0.00 43 1010.7
20260504182123 75 245 2.0 0.0 0.00 0.00 0.00 47 1010.6
20260504181106 76 262 2.0 0.0 0.00 0.00 0.00 46 1010.6
20260504180051 75 269 2.0 0.0 0.00 0.00 0.00 46 1010.7
20260504175051 75 254 2.0 0.0 0.00 0.00 0.00 47 1010.7
20260504174044 73 252 2.0 0.0 0.00 0.00 0.00 47 1010.7
20260504173029 74 148 2.0 0.0 0.00 0.00 0.00 49 1010.7
20260504172047 73 321 1.0 0.0 0.00 0.00 0.00 50 1010.7
20260504171048 72 114 2.0 0.0 0.00 0.00 0.00 50 1010.6
20260504151109 62 300 0.0 0.0 0.00 0.00 0.00 72 1010.1
20260504150121 61 300 0.0 0.0 0.00 0.00 0.00 72 1010.0
20260504141042 54 300 0.0 0.0 0.00 0.00 0.00 75 1009.6
20260504081039 55 300 0.0 0.0 0.00 0.00 0.00 76 1009.3
20260504045044 63 300 0.0 0.0 0.00 0.00 0.00 63 1009.4
20260504044038 64 302 0.0 0.0 0.00 0.00 0.00 62 1009.4
20260504043052 65 302 0.0 0.0 0.00 0.00 0.00 59 1009.4
20260504042042 65 302 0.0 0.0 0.00 0.00 0.00 58 1009.2
20260504041034 66 309 0.0 0.0 0.00 0.00 0.00 58 1009.3
20260504040038 67 308 0.0 0.0 0.00 0.00 0.00 58 1009.1
20260504035051 67 308 0.0 0.0 0.00 0.00 0.00 59 1009.1
20260504033042 68 256 0.0 0.0 0.00 0.00 0.00 61 1009.1
20260504032047 69 255 0.0 0.0 0.00 0.00 0.00 59 1009.1
20260504031031 70 255 0.0 0.0 0.00 0.00 0.00 59 1009.2
20260504030045 71 255 0.0 0.0 0.00 0.00 0.00 57 1009.1
20260504025043 72 255 0.0 0.0 0.00 0.00 0.00 55 1009.0
20260504024035 73 254 0.0 0.0 0.00 0.00 0.00 53 1009.1
20260504023215 74 260 0.0 0.0 0.00 0.00 0.00 52 1009.0
20260504022047 75 283 1.0 0.0 0.00 0.00 0.00 51 1009.2
20260504021042 76 300 1.0 0.0 0.00 0.00 0.00 51 1009.2
20260504020052 77 182 0.0 0.0 0.00 0.00 0.00 49 1009.0
20260504015039 78 171 1.0 0.0 0.00 0.00 0.00 46 1009.1
20260504014026 79 204 1.0 0.0 0.00 0.00 0.00 45 1009.1
20260504013113 80 285 1.0 0.0 0.00 0.00 0.00 42 1009.2
20260504012042 80 6 2.0 0.0 0.00 0.00 0.00 41 1009.3